TimeMST,TemperatureF,Dew PointF,Humidity,Sea Level PressureIn,VisibilityMPH,Wind Direction,Wind SpeedMPH,Gust SpeedMPH,PrecipitationIn,Events,Conditions,WindDirDegrees,DateUTC
12:16 AM,26.6,-4.0,26,30.17,10.0,Calm,Calm,-,N/A,,Clear,0,2013-01-04 07:16:00
12:36 AM,28.4,-4.0,25,30.17,10.0,Calm,Calm,-,N/A,,Clear,0,2013-01-04 07:36:00
12:56 AM,30.2,-4.0,23,30.16,10.0,Calm,Calm,-,N/A,,Clear,0,2013-01-04 07:56:00
1:36 AM,26.6,-4.0,26,30.16,10.0,West,3.5,-,N/A,,Clear,270,2013-01-04 08:36:00
2:16 AM,28.4,-4.0,25,30.17,10.0,SW,4.6,-,N/A,,Clear,230,2013-01-04 09:16:00
6:50 AM,28.4,-2.2,27,30.14,-9999.0,Calm,Calm,-,N/A,,Clear,0,2013-01-04 13:50:00
7:50 AM,28.4,-0.4,29,30.13,60.0,Calm,Calm,-,N/A,,Clear,0,2013-01-04 14:50:00
8:46 AM,30.2,6.8,37,30.13,70.0,Calm,Calm,-,N/A,,Clear,0,2013-01-04 15:46:00
9:47 AM,33.8,6.8,32,30.15,70.0,Variable,3.5,-,N/A,,Clear,0,2013-01-04 16:47:00
10:46 AM,39.2,6.8,26,30.14,60.0,SE,4.6,-,N/A,,Clear,140,2013-01-04 17:46:00
11:47 AM,46.4,-5.8,11,30.11,60.0,Variable,4.6,-,N/A,,Clear,0,2013-01-04 18:47:00
12:49 PM,46.4,-4.0,12,30.05,60.0,SSE,3.5,-,N/A,,Clear,150,2013-01-04 19:49:00
1:55 PM,46.4,-2.2,13,30.02,50.0,Variable,3.5,-,N/A,,Clear,0,2013-01-04 20:55:00
2:50 PM,48.2,3.2,16,30.01,50.0,North,6.9,-,N/A,,Clear,350,2013-01-04 21:50:00
3:45 PM,44.6,8.6,23,30.01,70.0,North,6.9,-,N/A,,Clear,360,2013-01-04 22:45:00
4:46 PM,37.4,10.4,33,30.01,70.0,North,5.8,-,N/A,,Clear,10,2013-01-04 23:46:00
5:55 PM,37.4,6.8,28,30.02,20.0,Calm,Calm,-,N/A,,Clear,0,2013-01-05 00:55:00
6:52 PM,32.0,10.4,41,30.02,50.0,West,4.6,-,N/A,,Clear,260,2013-01-05 01:52:00
7:46 PM,33.8,6.8,32,30.02,50.0,Calm,Calm,-,N/A,,Clear,0,2013-01-05 02:46:00
8:45 PM,35.6,6.8,30,30.02,30.0,WNW,3.5,-,N/A,,Clear,300,2013-01-05 03:45:00
9:45 PM,32.0,10.4,41,30.03,30.0,WNW,10.4,-,N/A,,Clear,300,2013-01-05 04:45:00
10:16 PM,32.0,10.4,41,30.03,10.0,NNW,9.2,-,N/A,,Clear,330,2013-01-05 05:16:00
10:36 PM,30.2,12.2,47,30.04,10.0,NNW,10.4,-,N/A,,Clear,340,2013-01-05 05:36:00
10:56 PM,32.0,12.2,44,30.04,10.0,NNW,12.7,-,N/A,,Clear,340,2013-01-05 05:56:00
11:16 PM,30.2,10.4,44,30.04,10.0,NNW,11.5,-,N/A,,Clear,330,2013-01-05 06:16:00
11:36 PM,30.2,10.4,44,30.06,10.0,NNW,6.9,-,N/A,,Clear,340,2013-01-05 06:36:00
11:56 PM,28.4,10.4,47,30.06,10.0,NNW,4.6,-,N/A,,Clear,330,2013-01-05 06:56:00